Weather History for Oakey, QU

Change the Weather History Date:

Thursday, February 13, 2014

  Actual Average Record
Temperature  
Mean Temperature 76 °F -  
Max Temperature 91 °F - - ()
Min Temperature 62 °F - - ()
Cooling Degree Days 12    
Growing Degree Days 26 (Base 50)    
Moisture  
Dew Point 59 °F    
Average Humidity 55    
Maximum Humidity 88    
Minimum Humidity 24    
Precipitation  
Precipitation 0.00 in - - ()
Sea Level Pressure  
Sea Level Pressure 29.91 in    
Wind  
Wind Speed 9 mph ()    
Max Wind Speed 15 mph    
Max Gust Speed -    
Visibility 6.2 miles    
Events      
T = Trace of Precipitation, MM = Missing Value Source: Averaged Metar Reports

Daily Weather History Graph

Daily Weather History Graph

Search for Another Location

Airport:

Trip Planner

Search our weather history database for the weather conditions in past years. The results will help you decide how hot, cold, wet, or windy it might be!

Date:

Astronomy

Feb. 13, 2014 Rise Set
Actual Time 5:34 AM EST 6:39 PM EST
Civil Twilight 5:10 AM EST 7:03 PM EST
Nautical Twilight 4:41 AM EST 7:32 PM EST
Astronomical Twilight 4:11 AM EST 8:02 PM EST
Moon 5:17 PM EST (2/13) 3:50 AM EST (2/13)
Length of Visible Light 13h 53m
Length of Day
13h 04m
Waxing Gibbous, 97% of the Moon is Illuminated
Feb 13
Waxing Gibbous
Feb 15
Full
Feb 23
Last Quarter
Mar 1
New
Mar 8
First Quarter

Hourly Weather History & Observations

Time (EST) Temp. Heat Index Dew Point Humidity Pressure Visibility Wind Dir Wind Speed Gust Speed Precip Events Conditions
12:00 AM 68 °F - 59 °F 65% 29.95 in - ENE 11.5 mph - -  
12:00 AM 68.0 °F - 59.0 °F 73% 30.01 in 6.2 mi ENE 11.5 mph - N/A   Unknown
1:00 AM 67 °F - 58 °F 66% 29.94 in - ENE 11.5 mph - -  
1:00 AM 66.2 °F - 59.0 °F 78% 29.98 in 6.2 mi ENE 11.5 mph - N/A   Unknown
2:00 AM 66.2 °F - 59.0 °F 78% 29.98 in 6.2 mi ENE 9.2 mph - N/A   Unknown
3:00 AM 64 °F - 58 °F 75% 29.93 in - East 6.9 mph - -  
3:00 AM 64.4 °F - 59.0 °F 83% 29.98 in 6.2 mi East 6.9 mph - N/A   Unknown
4:00 AM 64 °F - 59 °F 78% 29.92 in - ENE 6.9 mph - -  
4:00 AM 64.4 °F - 59.0 °F 83% 29.98 in 6.2 mi ENE 6.9 mph - N/A   Unknown
5:00 AM 62.6 °F - 59.0 °F 88% 29.98 in 6.2 mi East 5.8 mph - N/A   Unknown
6:00 AM 64 °F - 60 °F 83% 29.94 in - ENE 4.6 mph - -  
6:00 AM 64.4 °F - 60.8 °F 88% 29.98 in 6.2 mi ENE 4.6 mph - N/A   Unknown
7:00 AM 68 °F - 61 °F 71% 29.96 in - East 6.9 mph - -  
7:00 AM 68.0 °F - 60.8 °F 78% 30.01 in 6.2 mi East 6.9 mph - N/A   Partly Cloudy
8:00 AM 73.4 °F - 59.0 °F 61% 30.01 in 6.2 mi NE 8.1 mph - N/A   Partly Cloudy
9:00 AM 77 °F - 57 °F 40% 29.96 in - NE 10.4 mph - -  
9:00 AM 77.0 °F - 57.2 °F 50% 30.01 in 6.2 mi NE 10.4 mph - N/A   Partly Cloudy
10:00 AM 80 °F - 58 °F 36% 29.95 in - NNE 5.8 mph - -  
10:00 AM 80.6 °F 80.8 °F 57.2 °F 45% 30.01 in 6.2 mi NNE 5.8 mph - N/A   Scattered Clouds
11:00 AM 84.2 °F 83.8 °F 59.0 °F 42% 29.98 in 6.2 mi ENE 8.1 mph - N/A   Scattered Clouds
12:00 PM 85 °F - 57 °F 28% 29.89 in - ENE 11.5 mph - -  
12:00 PM 86.0 °F 84.9 °F 57.2 °F 37% 29.95 in 6.2 mi ENE 11.5 mph - N/A   Scattered Clouds
1:00 PM 89 °F - 58 °F 25% 29.86 in - ENE 6.9 mph - -  
1:00 PM 87.8 °F 87.1 °F 59.0 °F 38% 29.92 in - ENE 6.9 mph - N/A   Clear
2:00 PM 89.6 °F 88.9 °F 59.0 °F 36% 29.89 in - SSW 5.8 mph - N/A   Clear
3:00 PM 91 °F - 59 °F 24% 29.81 in - ENE 9.2 mph - -  
3:00 PM 91.4 °F 90.7 °F 59.0 °F 34% 29.86 in - ENE 9.2 mph - N/A   Clear
4:00 PM 90 °F - 59 °F 26% 29.80 in - NE 10.4 mph - -  
4:00 PM 89.6 °F 88.9 °F 59.0 °F 36% 29.86 in - NE 10.4 mph - N/A   Clear
5:00 PM 87.8 °F 86.5 °F 57.2 °F 35% 29.83 in 6.2 mi NE 10.4 mph - N/A   Unknown
6:00 PM 85 °F - 59 °F 31% 29.78 in - NE 10.4 mph - -  
6:00 PM 86.0 °F 85.4 °F 59.0 °F 40% 29.83 in 6.2 mi NE 10.4 mph - N/A   Unknown
7:00 PM 82 °F - 59 °F 36% 29.79 in - ENE 12.7 mph - -  
7:00 PM 82.4 °F 82.5 °F 59.0 °F 45% 29.86 in 6.2 mi ENE 12.7 mph - N/A   Unknown
8:00 PM 78.8 °F - 59.0 °F 51% 29.86 in 6.2 mi ENE 11.5 mph - N/A   Unknown
9:00 PM 76 °F - 60 °F 47% 29.83 in - ENE 12.7 mph - -  
9:00 PM 75.2 °F - 59.0 °F 57% 29.89 in 6.2 mi ENE 12.7 mph - N/A   Unknown
10:00 PM 74 °F - 62 °F 56% 29.83 in - ENE 15.0 mph - -  
10:00 PM 73.4 °F - 60.8 °F 65% 29.89 in 6.2 mi ENE 15.0 mph - N/A   Unknown
11:00 PM 71.6 °F - 62.6 °F 73% 29.89 in 6.2 mi ENE 15.0 mph - N/A   Unknown